Regional Weather Roundup
Issued by NWS Columbia, SC

Home | Current Version | Previous Version | Text Only | Print | Product List | Glossary On
Versions: 1 2 3 4 5 6 7 8 9 10 11 12 13 14 15 16 17 18 19 20 21 22 23 24 25 26 27 28 29 30 31 32 33 34 35 36 37 38 39 40 41 42 43 44 45 46 47 48 49 50
000
ASUS42 KCAE 300010
RWRCAE
REGIONAL WEATHER ROUNDUP
NATIONAL WEATHER SERVICE COLUMBIA SC
800 PM EDT FRI APR 29 2016

NOTE: "FAIR" INDICATES FEW OR NO CLOUDS BELOW 12,000 FEET WITH NO
SIGNIFICANT WEATHER AND/OR OBSTRUCTIONS TO VISIBILITY.

NOT ALL STATIONS ARE QUALITY CONTROLLED BY THE NATIONAL
WEATHER SERVICE. USE DATA WITH CAUTION...ESPECIALLY
DEWPOINT OBSERVATIONS.

SCZ001>056-GAZ040-063>065-077-300100-
...UPSTATE SOUTH CAROLINA...

CITY           SKY/WX    TMP DP  RH WIND       PRES   REMARKS
ANDERSON       CLOUDY    77  57  50 CALM      29.95R
6HR MIN TEMP:  77; 6HR MAX TEMP:  88;

LIBERTY        CLOUDY    76  58  54 CALM      29.96R
6HR MIN TEMP:  13; 6HR MAX TEMP:  86;

SPARTANBURG    CLOUDY    77  52  41 SW3       29.95R
CLEMSON        CLOUDY    81  49  32 CALM      29.96R
6HR MIN TEMP:  81; 6HR MAX TEMP:  89;

GREENVILLE     CLOUDY    81  50  33 W5        29.97R
6HR MIN TEMP:  81; 6HR MAX TEMP:  87;

GREENWOOD      CLOUDY    75  56  51 CALM      29.96R
6HR MIN TEMP:  75; 6HR MAX TEMP:  89; 6HR PCP: TRACE;

GREER          PTCLDY    78  51  38 W3        29.95R
6HR MIN TEMP:  78; 6HR MAX TEMP:  87;

ROCK HILL      MOCLDY    74  60  61 SW3       29.95R
6HR MIN TEMP:  74; 6HR MAX TEMP:  86;

CHESTER        CLOUDY    73  54  49 CALM      29.95R
LAURENS        CLOUDY    77  54  44 CALM      29.95R


...CENTRAL SOUTH CAROLINA...

CITY           SKY/WX    TMP DP  RH WIND       PRES   REMARKS
COLUMBIA APT   PTCLDY    85  52  32 N3        29.92R
6HR MIN TEMP:  85; 6HR MAX TEMP:  91;

COLUMBIA OWENS CLEAR     82  56  40 CALM      29.94R
6HR MIN TEMP:  82; 6HR MAX TEMP:  92;

MCENTIRE ANGB  MOCLDY    78  67  69 CALM      29.93R
6HR MIN TEMP:  78; 6HR MAX TEMP:  88;

ORANGEBURG     CLEAR     81  60  48 CALM      29.92R
6HR MIN TEMP:  81; 6HR MAX TEMP:  91;

SUMTER SHAW    PTCLDY    81  64  57 SE3       29.91R
NEWBERRY       CLEAR     77  61  57 CALM      29.97R
AIKEN          FAIR      81  54  39 CALM      29.98R
BARNWELL       FAIR      82  64  54 CALM      29.93R
CAMDEN         FAIR      82  63  51 CALM      29.94R
LANCASTER      CLOUDY    79  55  44 CALM      29.94R
WINNSBORO      CLEAR     81  55  41 CALM      29.95R


...EASTERN AND COASTAL SOUTH CAROLINA...

CITY           SKY/WX    TMP DP  RH WIND       PRES   REMARKS
N MYRTLE BCH   CLEAR     69  64  84 SE6       29.96R
6HR MIN TEMP:  69; 6HR MAX TEMP:  76;

CONWAY         FAIR      70  64  83 SE3       29.97R
MARION         FAIR      75  64  69 SE7       29.94R
HARTSVILLE     FAIR      77  61  57 S3        29.93R
FLORENCE       CLOUDY    79  63  57 S6        29.93S
6HR MIN TEMP:  79; 6HR MAX TEMP:  86;

CHARLESTON APT MOCLDY    73  67  81 SE10      29.95R
6HR MIN TEMP:  73; 6HR MAX TEMP:  91;

MOUNT PLEASANT FAIR      72  70  94 SE5       29.96S FOG
WALTERBORO     CLEAR     79  59  50 SE6       29.95R
BEAUFORT       PTCLDY    77  67  71 E7        29.94R
6HR MIN TEMP:  77; 6HR MAX TEMP:  91;



...EASTERN GEORGIA...

CITY           SKY/WX    TMP DP  RH WIND       PRES   REMARKS
AUGUSTA BUSH F CLOUDY    78  65  63 CALM      29.92R
6HR MIN TEMP:  77; 6HR MAX TEMP:  91;

AUGUSTA DANIEL CLOUDY    86  55  34 NW5       29.95R
6HR MIN TEMP:  86; 6HR MAX TEMP:  93; 6HR PCP: TRACE;

THOMSON        CLOUDY    78  68  71 CALM      29.99R
6HR MIN TEMP:  78; 6HR MAX TEMP:  91;

WASHINGTON     FAIR      77  63  61 CALM      29.96R
CLAXTON        FAIR      81  67  63 CALM      29.92R
6HR MIN TEMP:  81; 6HR MAX TEMP:  92;

SYLVANIA       CLEAR     80  66  62 CALM      29.93R
6HR MIN TEMP:  80; 6HR MAX TEMP:  92;

STATESBORO     PTCLDY    83  69  61 CALM      29.93R
6HR MIN TEMP:  83; 6HR MAX TEMP:  95;

SAVANNAH       PTCLDY    80  57  45 SE9       29.94R
6HR MIN TEMP:  80; 6HR MAX TEMP:  93;



...SOUTHERN NORTH CAROLINA...

CITY           SKY/WX    TMP DP  RH WIND       PRES   REMARKS
CHARLOTTE      CLOUDY    78  55  44 S5        29.94R
6HR MIN TEMP:  78; 6HR MAX TEMP:  86;

MONROE         CLOUDY    75  58  55 S3        29.94R
6HR MIN TEMP:  75; 6HR MAX TEMP:  86;

WADESBORO      CLOUDY    77  58  51 CALM      29.92R
6HR MIN TEMP:  77; 6HR MAX TEMP:  87;

ROCKINGHAM     PTCLDY    79  57  46 CALM      29.93R
6HR MIN TEMP:  79; 6HR MAX TEMP:  84;

RUTHERFORDTON  CLOUDY    78  52  40 S3        29.96R
ASHEVILLE      CLOUDY    74  46  36 N10       30.03R
6HR MIN TEMP:  74; 6HR MAX TEMP:  82;


$$



USA.gov is the U.S. government's official web portal to all federal, state and local government web resources and services.